Home   Weather   Dakar   Past weeks

Flag for Senegal Past Weather in Dakar, Senegal — Yesterday and Last 2 Weeks

Now
88 °F

Sunny.


Feels Like: 100 °F
Forecast: N/A
Wind: 12 mph from North

Location: Dakar / Yoff

Current Time: Oct 1, 2016 at 5:24:52 PM

Latest Report: Oct 1, 2016 at 5:00 PM


Visibility: 10 mi

Pressure: 29.86 "Hg

Humidity: 70%

Dew Point: 77 °F

Location of DakarLocation

Past Weather in Dakar — Graph

°F

Dakar Temperature Yesterday

Maximum temperature yesterday: 88 °F (at 11:00 AM)
Minimum temperature yesterday: 75 °F (at 5:00 AM)
Average temperature yesterday: 82 °F

High & Low Weather Summary for the Past Weeks

 TemperatureHumidityPressure
High90 °F (Sep 21, 2:00 PM)100% (Sep 18, 11:30 AM)30.01 "Hg (Sep 18, 11:30 AM)
Low73 °F (Sep 28, 3:00 AM)54% (Sep 18, 3:00 PM)29.77 "Hg (Sep 16, 4:00 PM)
Average82 °F83%29.90 "Hg
* Reported Sep 16 4:00 PM — Oct 1 4:00 PM, Dakar, Weather by CustomWeather, © 2016

Note: Actual official high and low records may vary slightly from our data, if they occured in-between our weather recording intervals... More about our weather records

Advertising

Dakar Weather History for the Previous 24 Hours

Scroll right to see more
 ConditionsComfort  
Time TempWeatherWind HumidityBarometerVisibility
4:00 PM
Sat, Oct 1
88 °FSunny.12 mph70%29.86 "Hg10 mi
3:30 PM88 °FSunny.12 mph75%29.86 "Hg10 mi
3:00 PM88 °FSunny.12 mph70%29.89 "Hg10 mi
2:30 PM88 °FSunny.10 mph75%29.89 "Hg10 mi
2:00 PM88 °FSunny.12 mph70%29.89 "Hg10 mi
1:30 PM88 °FPassing clouds.10 mph75%29.89 "HgN/A
1:00 PM88 °FScattered clouds.10 mph75%29.92 "HgN/A
12:30 PM88 °FScattered clouds.10 mph75%29.92 "HgN/A
12:00 PM88 °FScattered clouds.8 mph79%29.95 "HgN/A
11:30 AM88 °FScattered clouds.8 mph75%29.95 "HgN/A
11:00 AM88 °FPassing clouds.8 mph75%29.95 "HgN/A
10:30 AM86 °FScattered clouds.6 mph79%29.95 "HgN/A
10:00 AM86 °FScattered clouds.6 mph79%29.95 "HgN/A
9:30 AM86 °FScattered clouds.5 mph79%29.92 "HgN/A
9:00 AM84 °FScattered clouds.3 mph84%29.92 "HgN/A
8:30 AM84 °FPassing clouds.5 mph84%29.92 "HgN/A
8:00 AM82 °FPassing clouds.3 mph89%29.92 "HgN/A
7:30 AM81 °FPassing clouds.3 mph94%29.89 "HgN/A
7:00 AM81 °FSunny.5 mph94%29.89 "Hg10 mi
6:30 AM81 °FClear.5 mph89%29.89 "Hg10 mi
6:00 AM82 °FClear.6 mph89%29.86 "Hg10 mi
5:30 AM82 °FClear.6 mph89%29.86 "Hg10 mi
5:00 AM82 °FClear.8 mph89%29.86 "Hg10 mi
4:30 AM82 °FClear.8 mph84%29.86 "Hg10 mi
4:00 AM82 °FClear.5 mph84%29.86 "Hg10 mi
3:30 AM81 °FClear.7 mph89%29.86 "Hg10 mi
3:00 AM81 °FClear.9 mph89%29.86 "Hg10 mi
2:30 AM82 °FClear.8 mph79%29.86 "Hg10 mi
2:00 AM82 °FClear.8 mph84%29.89 "Hg10 mi
1:30 AM81 °FClear.8 mph89%29.89 "Hg10 mi
1:00 AM81 °FClear.7 mph94%29.92 "Hg10 mi
12:30 AM81 °FClear.6 mph89%29.92 "Hg10 mi
12:00 AM82 °FClear.6 mph84%29.92 "Hg10 mi
11:30 PM
Fri, Sep 30
82 °FClear.6 mph89%29.92 "Hg10 mi
11:00 PM82 °FClear.8 mph89%29.92 "Hg10 mi
10:30 PM82 °FClear.8 mph84%29.92 "Hg10 mi
10:00 PM82 °FPassing clouds.9 mph84%29.92 "HgN/A
9:30 PM82 °FPassing clouds.9 mph84%29.89 "HgN/A
9:00 PM82 °FPassing clouds.9 mph89%29.89 "HgN/A
8:30 PM82 °FPassing clouds.12 mph89%29.86 "HgN/A
8:00 PM82 °FPassing clouds.10 mph89%29.86 "HgN/A
7:30 PM82 °FPassing clouds.10 mph89%29.86 "HgN/A
7:00 PM82 °FPassing clouds.12 mph89%29.86 "HgN/A
6:30 PM84 °FSunny.13 mph84%29.86 "Hg10 mi
6:00 PM84 °FSunny.13 mph84%29.86 "Hg10 mi
5:30 PM84 °FPassing clouds.13 mph79%29.86 "HgN/A
5:00 PM86 °FSunny.13 mph79%29.86 "Hg10 mi
Weather by CustomWeather, © 2016

See weather overviewHow to use our weather pages